Vous êtes sur la page 1sur 7

PSM

17/12/2019 09:15:36

Appareil
Type d'appareil N° de série Version de soft
KH220-O 2K 17.08.08211 1,11

Paramètres de campagne
Nom de la campagne Type de campagne
PSM Instantané

Nombre de points Intervalle


145 10 minute(s)

Date de départ Date de fin


15/12/2019 15:37:52 16/12/2019 15:37:52

Commentaires

Voie(s) enregistrée(s)
Voie Mesure Sonde
vint1 température [°C] Température Sonde thermo-hygro interne

Seuil bas Seuil haut


--- ---

Minimum Maximum Moyenne Ecart type MKT


18,3 22,3 19,26 0,42 19,27

Voie Mesure Sonde


vint2 humidité [% HR] Hygrométrie Sonde thermo-hygro interne

Seuil bas Seuil haut


--- ---

Minimum Maximum Moyenne Ecart type MKT


41,8 48,1 45,18 1,73 0,00

C:\Users\HP PROBOOK\Desktop\chambre ambiante\RTM01L11.kfk


1/7
PSM
17/12/2019 09:15:36

Voie(s) enregistrée(s)

C:\Users\HP PROBOOK\Desktop\chambre ambiante\RTM01L11.kfk


2/7
PSM
17/12/2019 09:15:36

vint1 température [°C]


Min Max Moy Ect MKT

18,3 22,3 19,26 0,42 19,27

vint2 humidité [% HR]


Min Max Moy Ect MKT

41,8 48,1 45,18 1,73 0,00

C:\Users\HP PROBOOK\Desktop\chambre ambiante\RTM01L11.kfk


3/7
PSM
17/12/2019 09:15:37

Statistiques vint1 température vint2 humidité [%


Minimum 18,3 41,8
Maximum 22,3 48,1
Moyenne 19,26 45,18
Ecart type 0,42 1,73
MKT 19,27 0,00

Index Date vint1 température vint2 humidité [%


1 15/12/2019 15:37:52 22,3 41,8
2 15/12/2019 15:47:52 20,1 44,4
3 15/12/2019 15:57:52 20,0 44,5
4 15/12/2019 16:07:52 19,5 45,3
5 15/12/2019 16:17:52 19,2 45,9
6 15/12/2019 16:27:52 19,0 46,2
7 15/12/2019 16:37:52 18,8 46,6
8 15/12/2019 16:47:52 18,7 46,9
9 15/12/2019 16:57:52 18,5 47,2
10 15/12/2019 17:07:52 18,4 47,4
11 15/12/2019 17:17:52 18,4 47,6
12 15/12/2019 17:27:52 18,4 47,8
13 15/12/2019 17:37:52 18,3 48,0
14 15/12/2019 17:47:52 18,5 48,1
15 15/12/2019 17:57:52 19,0 47,5
16 15/12/2019 18:07:52 19,2 47,2
17 15/12/2019 18:17:52 19,2 47,1
18 15/12/2019 18:27:52 19,2 47,2
19 15/12/2019 18:37:52 19,1 47,3
20 15/12/2019 18:47:52 19,0 47,3
21 15/12/2019 18:57:52 19,0 47,5
22 15/12/2019 19:07:52 18,9 47,5
23 15/12/2019 19:17:52 18,9 47,6
24 15/12/2019 19:27:52 18,8 47,7
25 15/12/2019 19:37:52 18,8 47,8
26 15/12/2019 19:47:52 18,8 47,7
27 15/12/2019 19:57:52 18,7 47,8
28 15/12/2019 20:07:52 18,7 47,7
29 15/12/2019 20:17:52 18,7 47,8
30 15/12/2019 20:27:52 18,7 47,8
31 15/12/2019 20:37:52 18,7 47,8
32 15/12/2019 20:47:52 19,1 47,3
33 15/12/2019 20:57:52 19,4 46,8
34 15/12/2019 21:07:52 19,5 46,7
35 15/12/2019 21:17:52 19,4 46,6
36 15/12/2019 21:27:52 19,3 46,6

C:\Users\HP PROBOOK\Desktop\chambre ambiante\RTM01L11.kfk


4/7
PSM
17/12/2019 09:15:37

Index Date vint1 température vint2 humidité [%


37 15/12/2019 21:37:52 19,2 46,7
38 15/12/2019 21:47:52 19,2 46,7
39 15/12/2019 21:57:52 19,1 46,8
40 15/12/2019 22:07:52 19,1 46,9
41 15/12/2019 22:17:52 19,0 47,0
42 15/12/2019 22:27:52 18,9 47,0
43 15/12/2019 22:37:52 18,9 47,1
44 15/12/2019 22:47:52 18,8 47,2
45 15/12/2019 22:57:52 18,9 47,1
46 15/12/2019 23:07:52 19,4 46,4
47 15/12/2019 23:17:52 19,6 46,2
48 15/12/2019 23:27:52 19,6 46,1
49 15/12/2019 23:37:52 19,5 46,1
50 15/12/2019 23:47:52 19,3 46,2
51 15/12/2019 23:57:52 19,2 46,2
52 16/12/2019 00:07:52 19,2 46,4
53 16/12/2019 00:17:52 19,1 46,5
54 16/12/2019 00:27:52 19,0 46,5
55 16/12/2019 00:37:52 19,0 46,6
56 16/12/2019 00:47:52 18,9 46,7
57 16/12/2019 00:57:52 18,8 46,8
58 16/12/2019 01:07:52 18,8 46,8
59 16/12/2019 01:17:52 19,3 46,2
60 16/12/2019 01:27:52 19,5 45,8
61 16/12/2019 01:37:52 19,6 45,7
62 16/12/2019 01:47:52 19,5 45,6
63 16/12/2019 01:57:52 19,4 45,8
64 16/12/2019 02:07:52 19,2 45,8
65 16/12/2019 02:17:52 19,2 45,9
66 16/12/2019 02:27:52 19,1 46,0
67 16/12/2019 02:37:52 19,0 46,0
68 16/12/2019 02:47:52 19,0 46,1
69 16/12/2019 02:57:52 19,2 45,9
70 16/12/2019 03:07:52 19,6 45,4
71 16/12/2019 03:17:52 19,7 45,1
72 16/12/2019 03:27:52 19,6 45,1
73 16/12/2019 03:37:52 19,5 45,2
74 16/12/2019 03:47:52 19,4 45,3
75 16/12/2019 03:57:52 19,2 45,3
76 16/12/2019 04:07:52 19,2 45,4
77 16/12/2019 04:17:52 19,1 45,5
78 16/12/2019 04:27:52 19,0 45,6

C:\Users\HP PROBOOK\Desktop\chambre ambiante\RTM01L11.kfk


5/7
PSM
17/12/2019 09:15:37

Index Date vint1 température vint2 humidité [%


79 16/12/2019 04:37:52 19,0 45,6
80 16/12/2019 04:47:52 19,5 45,0
81 16/12/2019 04:57:52 19,7 44,6
82 16/12/2019 05:07:52 19,6 44,6
83 16/12/2019 05:17:52 19,5 44,7
84 16/12/2019 05:27:52 19,4 44,6
85 16/12/2019 05:37:52 19,3 44,7
86 16/12/2019 05:47:52 19,2 44,8
87 16/12/2019 05:57:52 19,1 44,9
88 16/12/2019 06:07:52 19,0 45,0
89 16/12/2019 06:17:52 18,9 45,1
90 16/12/2019 06:27:52 19,3 44,7
91 16/12/2019 06:37:52 19,6 44,3
92 16/12/2019 06:47:52 19,7 44,1
93 16/12/2019 06:57:52 19,6 44,1
94 16/12/2019 07:07:52 19,4 44,1
95 16/12/2019 07:17:52 19,3 44,1
96 16/12/2019 07:27:52 19,2 44,3
97 16/12/2019 07:37:52 19,2 44,3
98 16/12/2019 07:47:52 19,1 44,4
99 16/12/2019 07:57:52 19,5 44,0
100 16/12/2019 08:07:52 19,7 43,7
101 16/12/2019 08:17:52 19,7 43,6
102 16/12/2019 08:27:52 19,6 43,4
103 16/12/2019 08:37:52 19,4 42,8
104 16/12/2019 08:47:52 19,0 43,1
105 16/12/2019 08:57:52 19,5 42,6
106 16/12/2019 09:07:52 19,7 42,3
107 16/12/2019 09:17:52 19,8 42,1
108 16/12/2019 09:27:52 19,7 42,0
109 16/12/2019 09:37:52 19,6 41,8
110 16/12/2019 09:47:52 19,5 42,1
111 16/12/2019 09:57:52 19,5 42,1
112 16/12/2019 10:07:52 19,2 42,2
113 16/12/2019 10:17:52 19,1 42,7
114 16/12/2019 10:27:52 19,1 42,7
115 16/12/2019 10:37:52 19,1 42,7
116 16/12/2019 10:47:52 19,2 42,7
117 16/12/2019 10:57:52 19,2 42,7
118 16/12/2019 11:07:52 19,2 42,7
119 16/12/2019 11:17:52 19,2 42,7
120 16/12/2019 11:27:52 19,2 43,3

C:\Users\HP PROBOOK\Desktop\chambre ambiante\RTM01L11.kfk


6/7
PSM
17/12/2019 09:15:37

Index Date vint1 température vint2 humidité [%


121 16/12/2019 11:37:52 19,1 43,5
122 16/12/2019 11:47:52 19,2 43,5
123 16/12/2019 11:57:52 19,2 43,6
124 16/12/2019 12:07:52 19,2 43,6
125 16/12/2019 12:17:52 19,2 43,5
126 16/12/2019 12:27:52 19,3 43,6
127 16/12/2019 12:37:52 19,3 43,6
128 16/12/2019 12:47:52 19,3 43,6
129 16/12/2019 12:57:52 19,4 43,6
130 16/12/2019 13:07:52 19,4 43,7
131 16/12/2019 13:17:52 19,4 43,7
132 16/12/2019 13:27:52 19,5 43,7
133 16/12/2019 13:37:52 19,5 43,6
134 16/12/2019 13:47:52 19,5 43,7
135 16/12/2019 13:57:52 19,5 43,7
136 16/12/2019 14:07:52 19,5 43,8
137 16/12/2019 14:17:52 19,5 43,7
138 16/12/2019 14:27:52 19,6 43,7
139 16/12/2019 14:37:52 19,6 43,7
140 16/12/2019 14:47:52 19,6 43,7
141 16/12/2019 14:57:52 19,6 43,7
142 16/12/2019 15:07:52 19,6 43,6
143 16/12/2019 15:17:52 19,7 43,6
144 16/12/2019 15:27:52 19,7 43,6
145 16/12/2019 15:37:52 19,7 43,5

C:\Users\HP PROBOOK\Desktop\chambre ambiante\RTM01L11.kfk


7/7

Vous aimerez peut-être aussi